Time,TemperatureF,DewpointF,PressureIn,WindDirection,WindDirectionDegrees,WindSpeedMPH,WindSpeedGustMPH,Humidity,HourlyPrecipIn,Conditions,Clouds,dailyrainin,SoftwareType,DateUTC
2013-04-01 01:00:00,44.0,-99.9,-100.00,NNE,16,1.0,2.0,-999,-99.99,,,0.00,,2013-04-01 08:00:00,
2013-04-01 02:00:00,43.0,-99.9,-100.00,West,278,3.0,4.0,-999,-99.99,,,-99.99,,2013-04-01 09:00:00,
2013-04-01 03:00:00,42.0,-99.9,-100.00,West,278,4.0,5.0,-999,-99.99,,,0.00,,2013-04-01 10:00:00,
2013-04-01 04:00:00,42.0,-99.9,-100.00,West,277,3.0,4.0,-999,-99.99,,,0.00,,2013-04-01 11:00:00,
2013-04-01 05:00:00,41.0,-99.9,-100.00,WNW,288,4.0,5.0,-999,-99.99,,,-99.99,,2013-04-01 12:00:00,
2013-04-01 06:00:00,40.0,-99.9,-100.00,West,274,2.0,4.0,-999,-99.99,,,0.00,,2013-04-01 13:00:00,
2013-04-01 07:00:00,41.0,-99.9,-100.00,West,271,2.0,3.0,-999,-99.99,,,-99.99,,2013-04-01 14:00:00,
2013-04-01 08:00:00,42.0,-99.9,-100.00,West,280,1.0,3.0,-999,-99.99,,,0.00,,2013-04-01 15:00:00,
2013-04-01 09:00:00,42.0,-99.9,-100.00,ESE,122,1.0,3.0,-999,-99.99,,,-99.99,,2013-04-01 16:00:00,
2013-04-01 10:00:00,45.0,-99.9,-100.00,ESE,123,1.0,2.0,-999,-99.99,,,-99.99,,2013-04-01 17:00:00,
2013-04-01 10:54:00,45.0,-99.9,-100.00,ESE,123,1.0,2.0,-999,-99.99,,,-99.99,,2013-04-01 17:54:00,
2013-04-01 11:00:00,46.0,-99.9,-100.00,SE,135,1.0,3.0,-999,-99.99,,,0.00,,2013-04-01 18:00:00,
2013-04-01 12:00:00,51.0,-99.9,-100.00,SSE,160,1.0,3.0,-999,-99.99,,,-99.99,,2013-04-01 19:00:00,
2013-04-01 13:00:00,51.0,-99.9,-100.00,ESE,117,1.0,3.0,-999,-99.99,,,0.00,,2013-04-01 20:00:00,
2013-04-01 14:00:00,52.0,-99.9,-100.00,SE,136,1.0,2.0,-999,-99.99,,,0.00,,2013-04-01 21:00:00,
2013-04-01 15:00:00,52.0,-99.9,-100.00,ESE,110,1.0,2.0,-999,-99.99,,,0.00,,2013-04-01 22:00:00,
2013-04-01 15:44:00,52.0,-99.9,-100.00,ESE,110,1.0,2.0,-999,-99.99,,,0.00,,2013-04-01 22:44:00,
2013-04-01 15:53:00,52.0,-99.9,-100.00,ESE,110,1.0,2.0,-999,-99.99,,,0.00,,2013-04-01 22:53:00,
2013-04-01 16:00:00,50.0,-99.9,-100.00,NE,36,1.0,1.0,-999,-99.99,,,0.00,,2013-04-01 23:00:00,
2013-04-01 16:53:00,50.0,-99.9,-100.00,NE,36,1.0,1.0,-999,-99.99,,,0.00,,2013-04-01 23:53:00,
2013-04-01 17:00:00,47.0,-99.9,-100.00,North,9,0.0,1.0,-999,-99.99,,,-99.99,,2013-04-02 00:00:00,
2013-04-01 18:00:00,43.0,-99.9,-100.00,ESE,116,0.0,2.0,-999,-99.99,,,-99.99,,2013-04-02 01:00:00,
2013-04-01 18:43:00,43.0,-99.9,-100.00,ESE,116,0.0,2.0,-999,-99.99,,,-99.99,,2013-04-02 01:43:00,
2013-04-01 18:53:00,43.0,-99.9,-100.00,ESE,116,0.0,2.0,-999,-99.99,,,-99.99,,2013-04-02 01:53:00,
2013-04-01 19:00:00,42.0,-99.9,-100.00,ESE,119,0.0,2.0,-999,-99.99,,,0.00,,2013-04-02 02:00:00,
2013-04-01 19:53:00,42.0,-99.9,-100.00,ESE,119,0.0,2.0,-999,-99.99,,,0.00,,2013-04-02 02:53:00,
2013-04-01 20:00:00,40.0,-99.9,-100.00,SE,140,0.0,1.0,-999,-99.99,,,0.00,,2013-04-02 03:00:00,
2013-04-01 20:44:00,40.0,-99.9,-100.00,SE,140,0.0,1.0,-999,-99.99,,,0.00,,2013-04-02 03:44:00,
2013-04-01 20:53:00,40.0,-99.9,-100.00,SE,140,0.0,1.0,-999,-99.99,,,0.00,,2013-04-02 03:53:00,
2013-04-01 21:00:00,40.0,-99.9,-100.00,East,101,1.0,2.0,-999,-99.99,,,-99.99,,2013-04-02 04:00:00,
2013-04-01 22:00:00,39.0,-99.9,-100.00,SE,144,1.0,2.0,-999,-99.99,,,0.00,,2013-04-02 05:00:00,
2013-04-01 22:43:00,39.0,-99.9,-100.00,SE,144,1.0,2.0,-999,-99.99,,,0.00,,2013-04-02 05:43:00,
2013-04-01 22:53:00,39.0,-99.9,-100.00,SE,144,1.0,2.0,-999,-99.99,,,0.00,,2013-04-02 05:53:00,
2013-04-01 23:00:00,39.0,-99.9,-100.00,East,85,0.0,2.0,-999,-99.99,,,-99.99,,2013-04-02 06:00:00,
2013-04-01 23:42:00,39.0,-99.9,-100.00,East,85,0.0,2.0,-999,-99.99,,,-99.99,,2013-04-02 06:42:00,
2013-04-01 23:53:00,39.0,-99.9,-100.00,East,85,0.0,2.0,-999,-99.99,,,-99.99,,2013-04-02 06:53:00,